SAS606 ESSA-LSZH

Flight info

Callsign SAS606
Flight time 2h 9m
Altitude 38000
Route NOSLI N850 ABAMA DCT MAKEL DCT OTMON DCT SWALM DCT OMOGI T721 RILAX
Aircraft A320/M-SDE3FGHIRWY/LB1

Departure

Time 2026-05-01 08:07
Airport Stockholm-Arlanda Airport (ESSA)

Arrival

Time 2026-05-01 10:16
Airport Zürich Airport (LSZH)
Time Latitude Longitude Altitude Speed Heading
2026-05-01 07:23 59.65135 17.92809 138 ft 0 kts 191°
2026-05-01 07:56 59.65162 17.92820 138 ft 2 kts 191°
2026-05-01 07:56 59.65190 17.92859 138 ft 3 kts 259°
2026-05-01 07:57 59.65190 17.92892 138 ft 1 kts 293°
2026-05-01 07:57 59.65190 17.92890 138 ft 0 kts 291°
2026-05-01 08:00 59.65218 17.92843 138 ft 6 kts 326°
2026-05-01 08:01 59.65428 17.92626 138 ft 15 kts 333°
2026-05-01 08:01 59.65527 17.92532 138 ft 17 kts 342°
2026-05-01 08:01 59.65648 17.92466 138 ft 19 kts 348°
2026-05-01 08:02 59.65879 17.92459 138 ft 17 kts 10°
2026-05-01 08:02 59.66000 17.92499 138 ft 19 kts
2026-05-01 08:03 59.66220 17.92593 138 ft 13 kts 12°
2026-05-01 08:03 59.66319 17.92635 138 ft 16 kts 12°
2026-05-01 08:03 59.66424 17.92659 138 ft 0 kts
2026-05-01 08:04 59.66440 17.92662 138 ft 7 kts
2026-05-01 08:04 59.66558 17.92590 138 ft 11 kts 339°
2026-05-01 08:05 59.66619 17.92401 142 ft 7 kts 267°
2026-05-01 08:05 59.66589 17.92361 141 ft 5 kts 195°
2026-05-01 08:05 59.66580 17.92358 141 ft 0 kts 188°
2026-05-01 08:06 59.66432 17.92311 142 ft 56 kts 190°
2026-05-01 08:07 59.64877 17.91719 169 ft 159 kts 193°
2026-05-01 08:07 59.62844 17.90936 1446 ft 150 kts 194°
2026-05-01 08:08 59.61768 17.90522 1805 ft 166 kts 195°
2026-05-01 08:08 59.60044 17.87228 2502 ft 198 kts 243°
2026-05-01 08:09 59.58651 17.82033 3630 ft 220 kts 244°
2026-05-01 08:09 59.57935 17.79259 4173 ft 239 kts 246°
2026-05-01 08:09 59.57180 17.76198 4827 ft 255 kts 244°
2026-05-01 08:10 59.54355 17.71722 6571 ft 277 kts 207°
2026-05-01 08:10 59.50883 17.68422 8281 ft 281 kts 212°
2026-05-01 08:11 59.47381 17.64836 10030 ft 287 kts 212°
2026-05-01 08:11 59.43661 17.61062 10832 ft 322 kts 211°
2026-05-01 08:12 59.39533 17.56985 11987 ft 338 kts 211°
2026-05-01 08:12 59.37409 17.54918 12662 ft 343 kts 211°
2026-05-01 08:12 59.33058 17.50692 14023 ft 352 kts 211°
2026-05-01 08:13 59.30862 17.48554 14618 ft 356 kts 211°
2026-05-01 08:13 59.28636 17.46388 15210 ft 360 kts 211°
2026-05-01 08:13 59.24091 17.41982 16429 ft 367 kts 211°
2026-05-01 08:14 59.21793 17.39763 17031 ft 370 kts 211°
2026-05-01 08:14 59.19505 17.37555 17635 ft 373 kts 211°
2026-05-01 08:14 59.17180 17.35311 18236 ft 377 kts 211°
2026-05-01 08:14 59.14812 17.33028 18801 ft 380 kts 211°
2026-05-01 08:15 59.12433 17.30740 19342 ft 384 kts 211°
2026-05-01 08:15 59.07636 17.26000 20459 ft 387 kts 217°
2026-05-01 08:15 59.05470 17.22901 21005 ft 386 kts 225°
2026-05-01 08:16 59.03407 17.19553 21538 ft 389 kts 225°
2026-05-01 08:16 59.01317 17.16164 22063 ft 392 kts 225°
2026-05-01 08:16 58.99208 17.12757 22593 ft 395 kts 224°
2026-05-01 08:16 58.97089 17.09344 23122 ft 399 kts 224°
2026-05-01 08:17 58.94951 17.05905 23646 ft 402 kts 224°
2026-05-01 08:17 58.92782 17.02431 24105 ft 405 kts 224°
2026-05-01 08:17 58.90596 16.98939 24541 ft 408 kts 224°
2026-05-01 08:17 58.88424 16.95470 24953 ft 411 kts 224°
2026-05-01 08:18 58.86218 16.91951 25376 ft 413 kts 224°
2026-05-01 08:18 58.81748 16.84845 26189 ft 419 kts 223°
2026-05-01 08:19 58.77221 16.77670 26983 ft 424 kts 223°
2026-05-01 08:19 58.74929 16.74047 27363 ft 426 kts 223°
2026-05-01 08:19 58.72634 16.70423 27733 ft 429 kts 223°
2026-05-01 08:19 58.70313 16.66764 28111 ft 431 kts 223°
2026-05-01 08:20 58.67990 16.63105 28489 ft 434 kts 223°
2026-05-01 08:20 58.65638 16.59416 28874 ft 436 kts 223°
2026-05-01 08:20 58.63283 16.55730 29234 ft 439 kts 222°
2026-05-01 08:20 58.60904 16.52008 29583 ft 441 kts 222°
2026-05-01 08:21 58.58522 16.48284 29946 ft 444 kts 222°
2026-05-01 08:21 58.56114 16.44530 30298 ft 447 kts 222°
2026-05-01 08:21 58.53692 16.40759 30592 ft 449 kts 222°
2026-05-01 08:21 58.51267 16.36994 30909 ft 451 kts 222°
2026-05-01 08:22 58.48815 16.33203 31218 ft 453 kts 222°
2026-05-01 08:22 58.46365 16.29422 31652 ft 451 kts 222°
2026-05-01 08:22 58.43933 16.25670 32106 ft 450 kts 222°
2026-05-01 08:22 58.41498 16.21913 32556 ft 448 kts 222°
2026-05-01 08:23 58.39102 16.18219 32995 ft 447 kts 222°
2026-05-01 08:23 58.36657 16.14461 33449 ft 446 kts 222°
2026-05-01 08:23 58.34250 16.10767 33895 ft 445 kts 222°
2026-05-01 08:23 58.31837 16.07073 34345 ft 444 kts 222°
2026-05-01 08:24 58.29438 16.03410 34715 ft 443 kts 222°
2026-05-01 08:24 58.27032 15.99746 35062 ft 442 kts 222°
2026-05-01 08:24 58.24637 15.96110 35398 ft 441 kts 222°
2026-05-01 08:24 58.22235 15.92464 35722 ft 441 kts 221°
2026-05-01 08:25 58.19869 15.88868 36034 ft 440 kts 222°
2026-05-01 08:25 58.17485 15.85247 36343 ft 440 kts 221°
2026-05-01 08:25 58.15090 15.81619 36646 ft 440 kts 221°
2026-05-01 08:25 58.12705 15.78021 36939 ft 439 kts 221°
2026-05-01 08:26 58.10309 15.74414 37231 ft 439 kts 221°
2026-05-01 08:26 58.07915 15.70820 37513 ft 438 kts 221°
2026-05-01 08:26 58.05533 15.67246 37782 ft 438 kts 221°
2026-05-01 08:26 58.03140 15.63668 38055 ft 438 kts 221°
2026-05-01 08:27 58.00757 15.60109 38250 ft 438 kts 221°
2026-05-01 08:27 57.95734 15.53466 38295 ft 443 kts 215°
2026-05-01 08:28 57.90507 15.47279 38300 ft 444 kts 214°
2026-05-01 08:28 57.85273 15.41116 38297 ft 444 kts 214°
2026-05-01 08:29 57.80038 15.34962 38299 ft 444 kts 214°
2026-05-01 08:29 57.74799 15.28820 38308 ft 445 kts 214°
2026-05-01 08:30 57.69549 15.22686 38315 ft 445 kts 214°
2026-05-01 08:30 57.64330 15.16601 38318 ft 445 kts 214°
2026-05-01 08:31 57.59076 15.10489 38322 ft 445 kts 214°
2026-05-01 08:31 57.53788 15.04377 38329 ft 445 kts 214°
2026-05-01 08:32 57.48506 14.98302 38333 ft 445 kts 214°
2026-05-01 08:32 57.43277 14.92310 38335 ft 446 kts 214°
2026-05-01 08:33 57.38001 14.86274 38339 ft 446 kts 214°
2026-05-01 08:33 57.32723 14.80235 38351 ft 446 kts 213°
2026-05-01 08:34 57.27440 14.74219 38348 ft 446 kts 213°
2026-05-01 08:34 57.22147 14.68229 38355 ft 446 kts 213°
2026-05-01 08:35 57.16833 14.62249 38364 ft 446 kts 213°
2026-05-01 08:35 57.11533 14.56292 38370 ft 446 kts 213°
2026-05-01 08:36 57.06270 14.50382 38370 ft 446 kts 213°
2026-05-01 08:36 57.00959 14.44433 38372 ft 446 kts 213°
2026-05-01 08:37 56.95657 14.38521 38371 ft 446 kts 213°
2026-05-01 08:37 56.90350 14.32630 38375 ft 446 kts 213°
2026-05-01 08:38 56.85042 14.26761 38377 ft 446 kts 213°
2026-05-01 08:38 56.79765 14.20950 38379 ft 446 kts 213°
2026-05-01 08:39 56.74453 14.15115 38385 ft 446 kts 212°
2026-05-01 08:39 56.69126 14.09285 38388 ft 446 kts 212°
2026-05-01 08:40 56.62059 14.01560 38391 ft 445 kts 212°
2026-05-01 08:40 56.56750 13.95785 38397 ft 445 kts 212°
2026-05-01 08:41 56.51431 13.90023 38401 ft 445 kts 212°
2026-05-01 08:41 56.46109 13.84278 38402 ft 445 kts 212°
2026-05-01 08:42 56.40785 13.78556 38409 ft 445 kts 212°
2026-05-01 08:42 56.35447 13.72839 38413 ft 445 kts 212°
2026-05-01 08:43 56.30160 13.67183 38416 ft 445 kts 212°
2026-05-01 08:43 56.24837 13.61504 38419 ft 445 kts 212°
2026-05-01 08:44 56.19511 13.55846 38425 ft 444 kts 212°
2026-05-01 08:44 56.14183 13.50214 38425 ft 444 kts 212°
2026-05-01 08:45 56.08860 13.44603 38426 ft 444 kts 212°
2026-05-01 08:45 56.03533 13.38999 38426 ft 444 kts 212°
2026-05-01 08:46 55.98210 13.33406 38432 ft 444 kts 212°
2026-05-01 08:46 55.92885 13.27832 38429 ft 444 kts 211°
2026-05-01 08:47 55.87552 13.22287 38429 ft 444 kts 211°
2026-05-01 08:47 55.82218 13.16756 38432 ft 444 kts 211°
2026-05-01 08:48 55.76885 13.11231 38432 ft 444 kts 211°
2026-05-01 08:48 55.71553 13.05708 38443 ft 443 kts 211°
2026-05-01 08:49 55.66227 13.00227 38455 ft 443 kts 211°
2026-05-01 08:49 55.60884 12.94763 38446 ft 443 kts 211°
2026-05-01 08:50 55.55536 12.89311 38442 ft 444 kts 211°
2026-05-01 08:50 55.50193 12.83859 38443 ft 443 kts 211°
2026-05-01 08:51 55.44849 12.78426 38442 ft 443 kts 211°
2026-05-01 08:51 55.39497 12.73019 38442 ft 444 kts 211°
2026-05-01 08:52 55.34131 12.67598 38440 ft 444 kts 211°
2026-05-01 08:52 55.28818 12.62240 38440 ft 444 kts 211°
2026-05-01 08:53 55.23457 12.56871 38435 ft 444 kts 210°
2026-05-01 08:53 55.18091 12.51523 38434 ft 444 kts 210°
2026-05-01 08:54 55.12729 12.46184 38434 ft 444 kts 210°
2026-05-01 08:54 55.07366 12.40854 38430 ft 443 kts 210°
2026-05-01 08:55 55.01998 12.35538 38445 ft 443 kts 210°
2026-05-01 08:55 54.96633 12.30240 38432 ft 443 kts 210°
2026-05-01 08:56 54.91267 12.24952 38447 ft 443 kts 210°
2026-05-01 08:56 54.85901 12.19682 38448 ft 443 kts 210°
2026-05-01 08:57 54.80527 12.14438 38452 ft 443 kts 210°
2026-05-01 08:57 54.75183 12.09226 38441 ft 443 kts 210°
2026-05-01 08:58 54.69789 12.03975 38449 ft 443 kts 210°
2026-05-01 08:58 54.64441 11.98791 38441 ft 443 kts 210°
2026-05-01 08:59 54.59066 11.93601 38451 ft 443 kts 210°
2026-05-01 08:59 54.53708 11.88429 38457 ft 442 kts 210°
2026-05-01 09:00 54.48321 11.83256 38451 ft 442 kts 210°
2026-05-01 09:00 54.42921 11.78187 38462 ft 442 kts 208°
2026-05-01 09:01 54.37396 11.73493 38451 ft 442 kts 206°
2026-05-01 09:01 54.31840 11.68970 38457 ft 442 kts 206°
2026-05-01 09:02 54.26299 11.64404 38458 ft 442 kts 206°
2026-05-01 09:02 54.20773 11.59783 38461 ft 442 kts 206°
2026-05-01 09:03 54.15256 11.55178 38451 ft 442 kts 206°
2026-05-01 09:03 54.09727 11.50584 38460 ft 442 kts 206°
2026-05-01 09:04 54.04207 11.46020 38463 ft 442 kts 206°
2026-05-01 09:04 53.98712 11.41484 38464 ft 442 kts 206°
2026-05-01 09:05 53.93156 11.36917 38458 ft 442 kts 206°
2026-05-01 09:05 53.87601 11.32370 38465 ft 441 kts 206°
2026-05-01 09:06 53.82109 11.27882 38457 ft 441 kts 206°
2026-05-01 09:06 53.76574 11.23373 38469 ft 441 kts 206°
2026-05-01 09:07 53.71036 11.18869 38464 ft 442 kts 206°
2026-05-01 09:07 53.65503 11.14395 38466 ft 442 kts 206°
2026-05-01 09:08 53.59971 11.09932 38463 ft 441 kts 206°
2026-05-01 09:08 53.54431 11.05471 38455 ft 441 kts 206°
2026-05-01 09:09 53.48890 11.01026 38454 ft 441 kts 206°
2026-05-01 09:09 53.43377 10.96608 38455 ft 441 kts 206°
2026-05-01 09:10 53.37834 10.92178 38451 ft 441 kts 206°
2026-05-01 09:10 53.32288 10.87763 38447 ft 441 kts 206°
2026-05-01 09:11 53.26740 10.83355 38443 ft 441 kts 206°
2026-05-01 09:11 53.21152 10.78931 38446 ft 441 kts 205°
2026-05-01 09:12 53.15600 10.74549 38438 ft 441 kts 205°
2026-05-01 09:12 53.10046 10.70187 38443 ft 441 kts 205°
2026-05-01 09:13 53.04490 10.65826 38443 ft 442 kts 205°
2026-05-01 09:13 52.98938 10.61490 38437 ft 442 kts 205°
2026-05-01 09:14 52.93367 10.57154 38443 ft 442 kts 205°
2026-05-01 09:14 52.87794 10.52821 38443 ft 443 kts 205°
2026-05-01 09:15 52.82215 10.48492 38442 ft 443 kts 205°
2026-05-01 09:15 52.76662 10.44189 38441 ft 443 kts 205°
2026-05-01 09:16 52.71072 10.39878 38445 ft 443 kts 205°
2026-05-01 09:17 52.62672 10.33428 38442 ft 444 kts 205°
2026-05-01 09:17 52.54274 10.26998 38447 ft 444 kts 205°
2026-05-01 09:18 52.45857 10.20564 38446 ft 444 kts 205°
2026-05-01 09:19 52.37441 10.14204 38443 ft 444 kts 205°
2026-05-01 09:20 52.29050 10.07859 38442 ft 445 kts 205°
2026-05-01 09:21 52.17785 9.99389 38445 ft 445 kts 205°
2026-05-01 09:21 52.09377 9.93101 38437 ft 445 kts 205°
2026-05-01 09:22 51.98093 9.84699 38440 ft 446 kts 205°
2026-05-01 09:23 51.89608 9.78400 38437 ft 447 kts 205°
2026-05-01 09:24 51.81119 9.72144 38445 ft 447 kts 205°
2026-05-01 09:25 51.69783 9.63811 38441 ft 448 kts 205°
2026-05-01 09:26 51.61265 9.57595 38440 ft 447 kts 205°
2026-05-01 09:26 51.52789 9.51428 38449 ft 447 kts 205°
2026-05-01 09:27 51.44288 9.45260 38452 ft 447 kts 205°
2026-05-01 09:28 51.39569 9.41850 38450 ft 447 kts 205°
2026-05-01 09:28 51.33896 9.37772 38451 ft 447 kts 205°
2026-05-01 09:29 51.25017 9.33417 38444 ft 448 kts 188°
2026-05-01 09:30 51.15784 9.31074 38450 ft 449 kts 189°
2026-05-01 09:30 51.06534 9.28643 38454 ft 449 kts 189°
2026-05-01 09:31 51.00370 9.27041 38428 ft 449 kts 189°
2026-05-01 09:32 50.91116 9.24663 38432 ft 449 kts 189°
2026-05-01 09:32 50.81864 9.22291 38429 ft 448 kts 189°
2026-05-01 09:33 50.75719 9.20716 38423 ft 448 kts 189°
2026-05-01 09:34 50.66514 9.18366 38420 ft 449 kts 189°
2026-05-01 09:34 50.57370 9.16051 38420 ft 449 kts 189°
2026-05-01 09:35 50.48104 9.13703 38415 ft 450 kts 189°
2026-05-01 09:36 50.41930 9.12141 38421 ft 450 kts 189°
2026-05-01 09:36 50.35741 9.10594 38419 ft 450 kts 189°
2026-05-01 09:37 50.29526 9.09029 38402 ft 457 kts 189°
2026-05-01 09:37 50.19976 9.06641 38399 ft 466 kts 189°
2026-05-01 09:38 50.10355 9.04259 38399 ft 466 kts 189°
2026-05-01 09:39 50.00729 9.01868 38394 ft 467 kts 189°
2026-05-01 09:39 49.94314 9.00282 38398 ft 468 kts 189°
2026-05-01 09:40 49.84648 8.97901 38398 ft 469 kts 189°
2026-05-01 09:41 49.78210 8.96315 38396 ft 469 kts 189°
2026-05-01 09:41 49.68553 8.93962 38394 ft 469 kts 189°
2026-05-01 09:42 49.62093 8.92387 38380 ft 469 kts 189°
2026-05-01 09:43 49.49137 8.89239 38366 ft 473 kts 188°
2026-05-01 09:43 49.42619 8.87669 38376 ft 474 kts 188°
2026-05-01 09:44 49.32836 8.85322 38383 ft 475 kts 188°
2026-05-01 09:45 49.26292 8.83754 38382 ft 475 kts 188°
2026-05-01 09:45 49.16502 8.81403 37752 ft 475 kts 188°
2026-05-01 09:46 49.13249 8.80619 37047 ft 473 kts 188°
2026-05-01 09:46 49.09997 8.79838 36409 ft 470 kts 188°
2026-05-01 09:46 49.06778 8.79071 35799 ft 468 kts 188°
2026-05-01 09:46 49.03601 8.78320 35203 ft 467 kts 188°
2026-05-01 09:47 49.00405 8.77565 34622 ft 465 kts 188°
2026-05-01 09:47 48.97213 8.76809 34001 ft 464 kts 188°
2026-05-01 09:47 48.94022 8.76055 33341 ft 462 kts 188°
2026-05-01 09:47 48.90841 8.75306 32706 ft 460 kts 188°
2026-05-01 09:48 48.87712 8.74571 32082 ft 452 kts 188°
2026-05-01 09:48 48.84616 8.73841 31475 ft 451 kts 188°
2026-05-01 09:48 48.81516 8.73108 30880 ft 449 kts 188°
2026-05-01 09:48 48.78443 8.72378 30281 ft 447 kts 188°
2026-05-01 09:49 48.75415 8.71662 29585 ft 434 kts 188°
2026-05-01 09:49 48.72467 8.70972 28920 ft 422 kts 188°
2026-05-01 09:49 48.69614 8.70304 28296 ft 411 kts 188°
2026-05-01 09:49 48.66816 8.69648 27695 ft 401 kts 188°
2026-05-01 09:50 48.64086 8.69009 27130 ft 397 kts 188°
2026-05-01 09:50 48.61339 8.68367 26563 ft 399 kts 188°
2026-05-01 09:50 48.58619 8.67731 26015 ft 394 kts 188°
2026-05-01 09:50 48.55922 8.67102 25477 ft 389 kts 188°
2026-05-01 09:51 48.53270 8.66484 24953 ft 384 kts 188°
2026-05-01 09:51 48.50640 8.65872 24427 ft 379 kts 188°
2026-05-01 09:51 48.48056 8.65272 23917 ft 374 kts 188°
2026-05-01 09:51 48.45500 8.64682 23317 ft 370 kts 188°
2026-05-01 09:52 48.42961 8.64096 22740 ft 367 kts 188°
2026-05-01 09:52 48.40435 8.63511 22148 ft 369 kts 188°
2026-05-01 09:52 48.37907 8.62925 21571 ft 362 kts 187°
2026-05-01 09:52 48.35447 8.62356 21034 ft 355 kts 187°
2026-05-01 09:53 48.33012 8.61795 20557 ft 352 kts 187°
2026-05-01 09:53 48.30601 8.61240 20113 ft 351 kts 187°
2026-05-01 09:53 48.28205 8.60687 19694 ft 346 kts 187°
2026-05-01 09:53 48.25830 8.60138 19311 ft 345 kts 187°
2026-05-01 09:54 48.23458 8.59592 18953 ft 343 kts 187°
2026-05-01 09:54 48.21113 8.59054 18605 ft 341 kts 187°
2026-05-01 09:54 48.18776 8.58520 18326 ft 336 kts 187°
2026-05-01 09:54 48.16482 8.57989 18331 ft 335 kts 188°
2026-05-01 09:55 48.14177 8.57373 18330 ft 336 kts 189°
2026-05-01 09:55 48.11888 8.56692 18328 ft 336 kts 190°
2026-05-01 09:55 48.09591 8.55981 18330 ft 336 kts 190°
2026-05-01 09:55 48.07303 8.55267 18274 ft 337 kts 190°
2026-05-01 09:56 48.05008 8.54560 17995 ft 335 kts 189°
2026-05-01 09:56 48.02725 8.53868 17735 ft 333 kts 189°
2026-05-01 09:56 48.00459 8.53191 17474 ft 332 kts 189°
2026-05-01 09:56 47.98200 8.52568 17212 ft 330 kts 184°
2026-05-01 09:57 47.95920 8.52548 16951 ft 325 kts 171°
2026-05-01 09:57 47.93730 8.53274 16698 ft 322 kts 158°
2026-05-01 09:57 47.91712 8.54682 16441 ft 318 kts 146°
2026-05-01 09:57 47.89951 8.56639 16191 ft 316 kts 139°
2026-05-01 09:58 47.88587 8.58219 15998 ft 314 kts 141°
2026-05-01 09:58 47.86853 8.60256 15749 ft 314 kts 139°
2026-05-01 09:58 47.85186 8.62291 15509 ft 313 kts 139°
2026-05-01 09:59 47.83511 8.64365 15264 ft 312 kts 138°
2026-05-01 09:59 47.81853 8.66421 15029 ft 310 kts 138°
2026-05-01 09:59 47.80194 8.68468 14781 ft 309 kts 138°
2026-05-01 09:59 47.78534 8.70503 14546 ft 308 kts 139°
2026-05-01 10:00 47.76884 8.72511 14311 ft 307 kts 139°
2026-05-01 10:00 47.75228 8.74516 14070 ft 306 kts 139°
2026-05-01 10:00 47.73584 8.76501 13814 ft 305 kts 139°
2026-05-01 10:00 47.71939 8.78485 13542 ft 303 kts 139°
2026-05-01 10:01 47.70307 8.80452 13296 ft 302 kts 139°
2026-05-01 10:01 47.68677 8.82420 13026 ft 301 kts 139°
2026-05-01 10:01 47.67060 8.84370 12766 ft 300 kts 139°
2026-05-01 10:01 47.65437 8.86320 12505 ft 298 kts 139°
2026-05-01 10:02 47.63830 8.88250 12249 ft 297 kts 139°
2026-05-01 10:02 47.62326 8.90338 11996 ft 294 kts 128°
2026-05-01 10:02 47.61171 8.92811 11747 ft 292 kts 120°
2026-05-01 10:02 47.59856 8.95098 11501 ft 294 kts 141°
2026-05-01 10:03 47.58001 8.96332 11242 ft 296 kts 169°
2026-05-01 10:03 47.55954 8.96149 11005 ft 300 kts 197°
2026-05-01 10:03 47.54170 8.94545 10763 ft 304 kts 225°
2026-05-01 10:03 47.53097 8.91905 10521 ft 302 kts 253°
2026-05-01 10:04 47.52944 8.88839 10207 ft 301 kts 281°
2026-05-01 10:04 47.53752 8.86026 9770 ft 300 kts 308°
2026-05-01 10:04 47.55125 8.83679 9427 ft 299 kts 313°
2026-05-01 10:04 47.56484 8.81410 8938 ft 293 kts 310°
2026-05-01 10:05 47.57623 8.78943 8512 ft 288 kts 304°
2026-05-01 10:05 47.58732 8.76471 8082 ft 289 kts 304°
2026-05-01 10:05 47.59859 8.74018 7675 ft 284 kts 305°
2026-05-01 10:05 47.60943 8.71677 7342 ft 274 kts 305°
2026-05-01 10:06 47.62123 8.69473 7007 ft 266 kts 312°
2026-05-01 10:06 47.63367 8.67486 6587 ft 261 kts 313°
2026-05-01 10:06 47.64661 8.65631 6125 ft 258 kts 321°
2026-05-01 10:06 47.66049 8.64054 5929 ft 245 kts 322°
2026-05-01 10:07 47.67387 8.62598 6031 ft 238 kts 324°
2026-05-01 10:07 47.68727 8.61145 6051 ft 238 kts 324°
2026-05-01 10:07 47.70054 8.59698 6049 ft 237 kts 324°
2026-05-01 10:07 47.71383 8.58244 6047 ft 237 kts 324°
2026-05-01 10:08 47.73955 8.55159 6047 ft 237 kts 304°
2026-05-01 10:08 47.74627 8.52937 6045 ft 237 kts 286°
2026-05-01 10:08 47.75090 8.50580 6043 ft 237 kts 284°
2026-05-01 10:09 47.75342 8.48180 6045 ft 234 kts 261°
2026-05-01 10:09 47.74809 8.45949 6023 ft 231 kts 237°
2026-05-01 10:09 47.73933 8.43909 5758 ft 235 kts 234°
2026-05-01 10:09 47.73022 8.41902 5487 ft 234 kts 234°
2026-05-01 10:10 47.72096 8.39887 5222 ft 238 kts 234°
2026-05-01 10:10 47.71166 8.37886 4938 ft 233 kts 233°
2026-05-01 10:10 47.69019 8.34516 4377 ft 228 kts 207°
2026-05-01 10:11 47.68072 8.33811 4212 ft 231 kts 204°
2026-05-01 10:11 47.66610 8.32846 4054 ft 226 kts 196°
2026-05-01 10:11 47.65104 8.32531 4053 ft 211 kts 176°
2026-05-01 10:11 47.63731 8.32940 4047 ft 200 kts 157°
2026-05-01 10:12 47.62543 8.33952 4054 ft 197 kts 139°
2026-05-01 10:12 47.61531 8.35321 4064 ft 198 kts 136°
2026-05-01 10:12 47.59535 8.38077 4054 ft 194 kts 136°
2026-05-01 10:13 47.58552 8.39429 4056 ft 193 kts 136°
2026-05-01 10:13 47.57553 8.40801 3957 ft 199 kts 137°
2026-05-01 10:13 47.56545 8.42185 3709 ft 198 kts 136°
2026-05-01 10:14 47.54479 8.45021 3189 ft 201 kts 135°
2026-05-01 10:14 47.53472 8.46399 2911 ft 193 kts 134°
2026-05-01 10:14 47.52521 8.47700 2649 ft 180 kts 134°
2026-05-01 10:14 47.51657 8.48882 2427 ft 159 kts 134°
2026-05-01 10:15 47.50874 8.49954 2122 ft 149 kts 135°
2026-05-01 10:15 47.50124 8.50992 1961 ft 147 kts 135°
2026-05-01 10:15 47.49371 8.51994 1844 ft 146 kts 136°
2026-05-01 10:15 47.48628 8.53030 1620 ft 147 kts 134°
2026-05-01 10:16 47.47881 8.54062 1419 ft 146 kts 135°
2026-05-01 10:16 47.47232 8.54944 1385 ft 103 kts 138°
2026-05-01 10:16 47.46602 8.55802 1396 ft 33 kts 141°
2026-05-01 10:17 47.46413 8.55943 1400 ft 21 kts 164°
2026-05-01 10:17 47.46276 8.55989 1403 ft 0 kts 168°
2026-05-01 10:19 47.46242 8.56002 1406 ft 8 kts 163°
2026-05-01 10:19 47.46183 8.56036 1410 ft 14 kts 151°
2026-05-01 10:19 47.46103 8.56136 1408 ft 16 kts 136°
2026-05-01 10:20 47.45922 8.56309 1413 ft 16 kts 185°
2026-05-01 10:20 47.45811 8.56295 1416 ft 16 kts 184°
2026-05-01 10:20 47.45690 8.56275 1415 ft 16 kts 187°
2026-05-01 10:20 47.45655 8.56269 1415 ft 4 kts 187°
2026-05-01 10:21 47.45614 8.56224 1414 ft 9 kts 261°
2026-05-01 10:21 47.45633 8.55951 1416 ft 17 kts 277°
2026-05-01 10:21 47.45644 8.55754 1412 ft 22 kts 274°
2026-05-01 10:22 47.45670 8.55411 1401 ft 4 kts 277°
2026-05-01 10:22 47.45590 8.55358 1408 ft 12 kts 157°
2026-05-01 10:23 47.45516 8.55412 1409 ft 12 kts 154°
2026-05-01 10:23 47.45358 8.55521 1406 ft 13 kts 156°
2026-05-01 10:23 47.45267 8.55573 1410 ft 16 kts 168°
2026-05-01 10:24 47.45131 8.55651 1408 ft 0 kts 153°
2026-05-01 10:25 47.45119 8.55660 1405 ft 9 kts 152°
2026-05-01 10:25 47.45047 8.55710 1405 ft 0 kts 156°
2026-05-01 10:26 47.45031 8.55720 1408 ft 7 kts 155°
2026-05-01 10:26 47.44955 8.55815 1405 ft 4 kts 110°
2026-05-01 10:27 47.44970 8.55847 1403 ft 3 kts 22°
2026-05-01 10:27 47.45005 8.55854 1406 ft 4 kts
2026-05-01 10:28 47.45033 8.55857 1409 ft 1 kts
2026-05-01 10:28 47.45044 8.55858 1407 ft 0 kts